[[{"header":{"parameterUnit":"m.s-1","parameterCategory":2,"la1":30.2991,"la2":30.254,"lo1":-89.0895,"lo2":-89.0444,"dx":0.0017,"dy":0.0017,"nx":28,"ny":28,"refTime":"2022-12-03T09:00:00:Z","depth":"0","parameterNumber":2,"parameterNumberName":"U-component_of_CURRENTS"},"data":[0,0,0,0,0,0,0,0,0,0,0,0,0,0,0,0,0,0,0,0,0,0,0,0,0,0,0,0,0,0,0,0,0,0,0,0,0,0,0,0,0,0,0,0,0,0,0,0,0,0,0,0,0,0,0,0,0,0,0.2135,0.2134,0,0.2093,0.2092,0.2092,0.2049,0.2049,0.2048,0.2048,0.1999,0.1999,0.1998,0,0,0,0,0,0,0,0,0,0,0,0,0,0.2126,0.2127,0.2135,0.2134,0.2134,0.2093,0.2092,0.2092,0.205,0.2049,0.2048,0.2047,0.2,0.1999,0.1998,0,0,0,0,0,0,0,0,0,0,0,0,0,0.2113,0.2128,0.2135,0.2107,0.2104,0.2093,0.2092,0.2092,0.205,0.2049,0.2048,0.2047,0.2,0.1999,0.1998,0.201,0,0,0.1995,0.1994,0,0,0,0,0,0,0,0,0.2114,0.2113,0.2112,0.2109,0.2106,0.2075,0.2071,0.2064,0.205,0.2071,0.2048,0.2047,0.2024,0.2021,0.2016,0.2008,0.2006,0.1995,0.1994,0.1994,0.1993,0,0,0,0,0,0,0,0.2115,0.2114,0.2119,0.2111,0.2108,0.2079,0.2076,0.207,0.2054,0.2069,0.2066,0.206,0.2023,0.2018,0.2015,0.2005,0.1995,0.1994,0.1993,0.1993,0.1995,0.1995,0,0,0,0,0,0,0.2123,0.2116,0.212,0.2118,0.2107,0.208,0.2077,0.2086,0.2054,0.2048,0.2061,0.2059,0.202,0.2016,0.2013,0.2044,0.1994,0.1993,0.1992,0.1994,0.1995,0.1996,0,0,0,0,0,0,0.2123,0.2124,0.2122,0.2114,0.2112,0.2081,0.2092,0.2086,0.2087,0.2048,0.2042,0.2068,0.2019,0.2015,0.2004,0.2041,0.1992,0.1991,0.1993,0.1994,0.1995,0.2094,0,0,0,0,0,0,0.2123,0.2125,0.2141,0.2115,0.2112,0.2125,0.2092,0.2086,0.2084,0.208,0.2052,0.2046,0.2018,0.2006,0.2003,0.2038,0.199,0.1992,0.1994,0.1995,0.209,0.2098,0.2105,0,0,0,0,0,0.2123,0.2151,0.2142,0.2142,0.2134,0.2125,0.2122,0.2096,0.2085,0.2093,0.2065,0.2047,0.2012,0.2006,0.2002,0.2038,0.1992,0.1993,0.1995,0.2086,0.2096,0.2105,0,0,0,0,0,0,0.217,0.2149,0.2138,0.2163,0.2148,0.2118,0.2124,0.2109,0.2094,0.2092,0.2054,0.2047,0.2062,0.2027,0.2021,0.204,0.2001,0.2002,0.2071,0.2081,0.2088,0.214,0.1989,0,0,0,0,0,0.2185,0.2193,0.217,0.2191,0.2186,0.2159,0.2155,0.2139,0.2119,0.2112,0.2083,0.2061,0.2066,0.2053,0.2047,0.2049,0.2068,0.2068,0.2076,0.2083,0.2121,0.2188,0.2207,0.2001,0.2001,0.2001,0,0,0.221,0.2199,0.2205,0.22,0.2186,0.2187,0.2155,0.2156,0.2163,0.211,0.2107,0.2097,0.2076,0.2087,0.2088,0.2059,0.2144,0.2085,0.2091,0.2127,0.2192,0.2213,0.2231,0.2002,0.2002,0.2001,0,0,0.2253,0.2253,0.2267,0.2254,0.2237,0.2221,0.2226,0.2198,0.2193,0.219,0.2167,0.2185,0.2148,0.216,0.216,0.2208,0.2197,0.2184,0.2254,0.2318,0.2337,0.2354,0.2381,0.24,0.2172,0.2172,0.2172,0,0.228,0.2294,0.2272,0.2276,0.227,0.2241,0.2252,0.2249,0.222,0.2227,0.22,0.2216,0.2202,0.2252,0.2266,0.2235,0.2246,0.2222,0.2334,0.2351,0.2366,0.239,0.241,0.2177,0.2176,0.2176,0.2175,0,0.2316,0.233,0.2339,0.233,0.2328,0.2333,0.2317,0.232,0.2309,0.2303,0.2345,0.2336,0.2348,0.2346,0.2324,0.2419,0.2382,0.2352,0.2321,0.2394,0.2413,0.2432,0.2184,0.2182,0.2181,0.218,0,0,0.2347,0.2363,0.2361,0.2359,0.2353,0.2345,0.2377,0.2389,0.2403,0.2411,0.2451,0.2491,0.2492,0.2496,0.2477,0.2533,0.2649,0.2489,0.249,0.2536,0.2767,0.2698,0.271,0.2633,0.2637,0.2641,0.2727,0,0.2373,0.24,0.2401,0.2414,0.2416,0.2408,0.2427,0.244,0.2448,0.2473,0.2524,0.2551,0.2544,0.2552,0.2622,0.2643,0.2706,0.2627,0.2672,0.2674,0.2622,0.2734,0.2651,0.2719,0.2746,0.2749,0.2751,0,0.2381,0.2398,0.243,0.2435,0.2435,0.2442,0.2457,0.2473,0.2524,0.2535,0.2604,0.2623,0.2729,0.2699,0.2834,0.2776,0.28,0.2816,0.2819,0.2746,0.2642,0.2652,0.2752,0.267,0.2779,0.2777,0.2775,0,0.2367,0.2399,0.2426,0.2426,0.2443,0.2456,0.2463,0.2494,0.2511,0.2584,0.2615,0.2723,0.2773,0.2861,0.2912,0.2878,0.3041,0.2985,0.2953,0.2945,0.2884,0.2865,0.2936,0.311,0.3109,0.3109,0.3109,0,0.2366,0.2368,0.242,0.242,0.2434,0.2447,0.2463,0.2484,0.2539,0.257,0.2649,0.2705,0.2821,0.2911,0.2957,0.3023,0.3084,0.3015,0.299,0.2908,0.2891,0.282,0.278,0.3112,0.3112,0.3111,0.311,0,0.2317,0.2364,0.2373,0.2413,0.2423,0.2422,0.2448,0.246,0.2519,0.2574,0.261,0.2722,0.2828,0.2925,0.3048,0.306,0.3048,0.3131,0.301,0.2971,0.2838,0.2805,0.2757,0.2679,0.312,0.3119,0.3119,0,0.2284,0.23,0.235,0.2361,0.2374,0.2386,0.2392,0.2441,0.2461,0.2573,0.2603,0.2729,0.2794,0.2952,0.3013,0.3098,0.3007,0.3046,0.2985,0.2867,0.2814,0.2678,0.2606,0.2931,0.2929,0.2927,0.2926,0,0.2215,0.2247,0.2272,0.2301,0.2315,0.2325,0.2345,0.2361,0.2427,0.248,0.2554,0.2625,0.2774,0.2828,0.2936,0.2976,0.2896,0.3009,0.2944,0.2745,0.2549,0.2447,0.2806,0.2911,0.2912,0.2913,0.2914,0.2915,0.215,0.2155,0.2205,0.2226,0.224,0.2244,0.2222,0.2262,0.2287,0.2345,0.2467,0.2543,0.2682,0.2818,0.2828,0.279,0.2766,0.2736,0.2728,0.2616,0.2487,0.2794,0.2825,0.2826,0.2827,0.2828,0.2829,0,0.2056,0.2091,0.2117,0.2134,0.2118,0.216,0.2167,0.2136,0.2126,0.224,0.2302,0.2453,0.2515,0.2596,0.2629,0.255,0.2431,0.2481,0.2302,0.2263,0.2608,0.2544,0.2444,0.2445,0.2445,0.2445,0.2445,0.2445,0.2004,0.2014,0.2047,0.2012,0.2018,0.1961,0.1948,0.1926,0.197,0.2011,0.2092,0.2213,0.2362,0.2448,0.239,0.2343,0.2171,0.207,0.2048,0.2324,0.2347,0.2369,0.2301,0.2152,0.2152,0.1612,0.1609,0.1606]},{"header":{"parameterUnit":"m.s-1","parameterCategory":2,"la1":30.2991,"la2":30.254,"lo1":-89.0895,"lo2":-89.0444,"dx":0.0017,"dy":0.0017,"nx":28,"ny":28,"refTime":"2022-12-03T09:00:00:Z","depth":"0","parameterNumber":3,"parameterNumberName":"V-component_of_CURRENTS"},"data":[0,0,0,0,0,0,0,0,0,0,0,0,0,0,0,0,0,0,0,0,0,0,0,0,0,0,0,0,0,0,0,0,0,0,0,0,0,0,0,0,0,0,0,0,0,0,0,0,0,0,0,0,0,0,0,0,0,0,-0.0121,-0.0121,0,-0.0166,-0.0167,-0.0167,-0.0212,-0.0213,-0.0213,-0.0214,-0.0293,-0.0294,-0.0296,0,0,0,0,0,0,0,0,0,0,0,0,0,-0.0022,-0.0023,-0.0121,-0.0121,-0.0122,-0.0166,-0.0167,-0.0167,-0.0212,-0.0213,-0.0214,-0.0214,-0.0293,-0.0294,-0.0296,0,0,0,0,0,0,0,0,0,0,0,0,0,-0.0064,-0.0024,-0.012,-0.0151,-0.0154,-0.0166,-0.0167,-0.0167,-0.0212,-0.0213,-0.0214,-0.0215,-0.0292,-0.0294,-0.0296,-0.0286,0,0,-0.0302,-0.0303,0,0,0,0,0,0,0,0,-0.0062,-0.0067,-0.0146,-0.0149,-0.0153,-0.0186,-0.0161,-0.021,-0.0211,-0.0188,-0.0214,-0.0215,-0.0261,-0.0265,-0.0268,-0.029,-0.0294,-0.0303,-0.0304,-0.0305,-0.0305,0,0,0,0,0,0,0,-0.0059,-0.0065,-0.0137,-0.0146,-0.0151,-0.0145,-0.0153,-0.017,-0.0217,-0.019,-0.0194,-0.0202,-0.0263,-0.0266,-0.0271,-0.0295,-0.0303,-0.0304,-0.0306,-0.0307,-0.0293,-0.0292,0,0,0,0,0,0,-0.0058,-0.0063,-0.0135,-0.0138,-0.0111,-0.0147,-0.0155,-0.0173,-0.0216,-0.0224,-0.0201,-0.0203,-0.0262,-0.0268,-0.0274,-0.0234,-0.0305,-0.0307,-0.0308,-0.0295,-0.0293,-0.0291,0,0,0,0,0,0,-0.0056,-0.0065,-0.0134,-0.0102,-0.0111,-0.0148,-0.0167,-0.0173,-0.0179,-0.0224,-0.0232,-0.0201,-0.0263,-0.0271,-0.0276,-0.0238,-0.0308,-0.031,-0.0297,-0.0294,-0.0292,-0.0173,0,0,0,0,0,0,-0.0053,-0.0064,-0.0066,-0.0103,-0.0113,-0.0125,-0.0166,-0.0173,-0.0183,-0.0187,-0.0226,-0.0235,-0.0265,-0.0272,-0.0278,-0.0243,-0.0311,-0.0299,-0.0295,-0.0293,-0.0179,-0.0167,-0.0157,0,0,0,0,0,-0.005,-0.0049,-0.0066,-0.0074,-0.0119,-0.0124,-0.0127,-0.0156,-0.0182,-0.0168,-0.0197,-0.0234,-0.0257,-0.0272,-0.0279,-0.0244,-0.03,-0.0296,-0.0293,-0.0184,-0.017,-0.0157,0,0,0,0,0,0,0.0001,-0.0054,-0.0074,-0.0088,-0.0098,-0.0132,-0.0127,-0.0149,-0.0161,-0.0174,-0.0216,-0.0224,-0.0213,-0.0245,-0.0261,-0.0231,-0.0283,-0.0281,-0.0199,-0.0185,-0.0174,-0.0127,-0.0313,0,0,0,0,0,0.0009,-0.0008,-0.0047,-0.0052,-0.0061,-0.0092,-0.0098,-0.012,-0.0141,-0.0149,-0.0172,-0.0196,-0.0201,-0.0208,-0.0222,-0.0208,-0.0215,-0.0189,-0.0178,-0.0168,-0.0134,-0.0101,-0.0083,-0.0279,-0.0279,-0.0279,0,0,0.0028,-0.0003,-0.0012,-0.0042,-0.0058,-0.0052,-0.0098,-0.0105,-0.0089,-0.0155,-0.0135,-0.0159,-0.0189,-0.0167,-0.0165,-0.0192,-0.0122,-0.0163,-0.0155,-0.0125,-0.0095,-0.0076,-0.0059,-0.0277,-0.0277,-0.0277,0,0,0.0063,0.0029,0.0028,0.0024,-0.0001,-0.0019,-0.0019,-0.0046,-0.0047,-0.0035,-0.0071,-0.0058,-0.0086,-0.0076,-0.0082,-0.0015,-0.0062,-0.0038,0.0058,0.0089,0.0106,0.0121,0.0117,0.0131,-0.0033,-0.0033,-0.0032,0,0.0092,0.0076,0.0036,0.0044,0.0046,-0.0,0.0017,0.0019,-0.0,0.0025,-0.0015,0.0009,-0.0027,0.0033,0.0049,0.0016,0.0005,0.0009,0.0107,0.0121,0.0135,0.0127,0.014,-0.0027,-0.0027,-0.0028,-0.0028,0,0.0125,0.0122,0.0127,0.0115,0.0121,0.0125,0.0115,0.0134,0.012,0.0128,0.0183,0.0157,0.0182,0.0165,0.0122,0.0205,0.0155,0.0118,0.0078,0.0162,0.0147,0.0159,-0.0018,-0.002,-0.0022,-0.0023,0,0,0.0156,0.0149,0.0152,0.0165,0.0153,0.0163,0.0205,0.0241,0.0297,0.0294,0.0385,0.0376,0.0375,0.0371,0.0333,0.0353,0.0416,0.0277,0.0275,0.0282,0.046,0.0402,0.0408,0.0389,0.0392,0.0395,0.0404,0,0.0193,0.0222,0.0209,0.0255,0.0267,0.0263,0.0317,0.0352,0.0383,0.0466,0.0475,0.0533,0.0449,0.0472,0.0487,0.0443,0.0457,0.0416,0.0369,0.0368,0.0316,0.0425,0.0394,0.0399,0.0415,0.0417,0.0419,0,0.0222,0.0237,0.0279,0.0326,0.0335,0.0365,0.0452,0.0496,0.0597,0.0632,0.0705,0.0714,0.0772,0.068,0.0679,0.0651,0.0575,0.0525,0.0524,0.0447,0.0336,0.032,0.042,0.0261,0.0437,0.0435,0.0434,0,0.0251,0.0288,0.0324,0.0336,0.0383,0.0424,0.0459,0.0551,0.0629,0.0754,0.0845,0.0892,0.0948,0.0885,0.0781,0.0737,0.076,0.0684,0.0563,0.0555,0.0513,0.0497,0.0471,0.0693,0.0693,0.0693,0.0693,0,0.0282,0.0313,0.0342,0.0363,0.0437,0.0461,0.0572,0.0628,0.0761,0.0897,0.0937,0.1065,0.1004,0.1008,0.0868,0.0768,0.083,0.0621,0.058,0.0548,0.0536,0.0379,0.0296,0.0693,0.0693,0.0693,0.0693,0,0.03,0.0316,0.0362,0.042,0.0445,0.0498,0.0621,0.0724,0.0837,0.1028,0.1085,0.1219,0.1232,0.1133,0.1046,0.0898,0.0696,0.0717,0.0667,0.0621,0.0349,0.0273,0.0247,0.0177,0.0609,0.0608,0.0607,0,0.0307,0.0329,0.0395,0.0435,0.0459,0.0545,0.0627,0.0743,0.0871,0.1126,0.1238,0.1341,0.1427,0.1284,0.1049,0.083,0.068,0.0639,0.0559,0.0372,0.0258,0.0216,0.0156,0.0534,0.0533,0.0532,0.0531,0,0.0323,0.0344,0.0386,0.0467,0.0543,0.065,0.0778,0.0891,0.1074,0.1248,0.1473,0.1566,0.1478,0.1301,0.1013,0.0833,0.0532,0.0607,0.0453,0.0252,0.0173,0.0071,0.0455,0.0521,0.0522,0.0523,0.0523,0.0524,0.0335,0.037,0.0431,0.0515,0.0611,0.0762,0.087,0.1034,0.1243,0.1518,0.1589,0.1743,0.1484,0.1113,0.0876,0.041,0.0446,0.0253,0.0191,0.0176,0.0082,0.043,0.042,0.0421,0.0421,0.0421,0.0422,0,0.0355,0.0408,0.0482,0.06,0.0721,0.0772,0.0987,0.1119,0.1358,0.1576,0.1743,0.1688,0.1328,0.096,0.0359,0.0049,-0.0055,-0.0115,-0.0181,-0.0213,0.0129,0.0094,-0.0031,-0.0031,-0.0031,-0.003,-0.003,-0.003,0.0373,0.0447,0.0496,0.0682,0.0777,0.0963,0.1092,0.1281,0.1456,0.1695,0.1794,0.1851,0.1542,0.0548,-0.0156,-0.0321,-0.0516,-0.0549,-0.0634,-0.043,-0.04,-0.0373,-0.0424,-0.0656,-0.0657,-0.0952,-0.0955,-0.0957]}],[{"header":{"parameterUnit":"m.s-1","parameterCategory":2,"la1":30.2991,"la2":30.254,"lo1":-89.0895,"lo2":-89.0444,"dx":0.0017,"dy":0.0017,"nx":28,"ny":28,"refTime":"2022-12-03T09:00:00:Z","depth":"2","parameterNumber":2,"parameterNumberName":"U-component_of_CURRENTS"},"data":[0,0,0,0,0,0,0,0,0,0,0,0,0,0,0,0,0,0,0,0,0,0,0,0,0,0,0,0,0,0,0,0,0,0,0,0,0,0,0,0,0,0,0,0,0,0,0,0,0,0,0,0,0,0,0,0,0,0,0.1896,0.1896,0,0.1878,0.1878,0.1877,0.1892,0.1893,0.1894,0.1895,0.1863,0.1861,0.186,0,0,0,0,0,0,0,0,0,0,0,0,0,0.1913,0.1912,0.1896,0.1896,0.1896,0.1878,0.1878,0.1877,0.1892,0.1893,0.1894,0.1895,0.1863,0.1861,0.186,0,0,0,0,0,0,0,0,0,0,0,0,0,0.19,0.1912,0.1896,0.1902,0.1903,0.1878,0.1878,0.1877,0.1892,0.1893,0.1894,0.1895,0.1864,0.1862,0.1859,0.1822,0,0,0.1852,0.1851,0,0,0,0,0,0,0,0,0.19,0.1899,0.1902,0.1902,0.1902,0.189,0.1872,0.1858,0.1892,0.1894,0.1895,0.1896,0.1871,0.1868,0.186,0.182,0.1819,0.1852,0.185,0.1849,0.1849,0,0,0,0,0,0,0,0.1901,0.19,0.1887,0.1901,0.1902,0.1896,0.1895,0.1869,0.1875,0.1894,0.1896,0.1896,0.1871,0.1862,0.1859,0.1818,0.1852,0.185,0.1848,0.1848,0.1855,0.1857,0,0,0,0,0,0,0.1907,0.19,0.1888,0.1887,0.1906,0.1895,0.1894,0.1892,0.1875,0.1875,0.1895,0.1897,0.1866,0.1862,0.1858,0.1917,0.1849,0.1847,0.1846,0.1854,0.1856,0.1857,0,0,0,0,0,0,0.1907,0.1906,0.1889,0.1895,0.1892,0.1893,0.189,0.1891,0.1906,0.1876,0.1875,0.1913,0.1866,0.1861,0.1884,0.1912,0.1846,0.1844,0.1852,0.1854,0.1856,0.1967,0,0,0,0,0,0,0.1908,0.1906,0.1914,0.1895,0.1892,0.1894,0.1889,0.1889,0.1903,0.1906,0.1891,0.1888,0.1867,0.1888,0.1882,0.1907,0.1842,0.185,0.1853,0.1856,0.1961,0.1973,0.1982,0,0,0,0,0,0.1908,0.1909,0.1914,0.1913,0.1901,0.1895,0.1893,0.1896,0.1903,0.1913,0.1925,0.189,0.1902,0.1888,0.188,0.1905,0.1848,0.1852,0.1855,0.1956,0.197,0.1982,0,0,0,0,0,0,0.1928,0.191,0.1916,0.1915,0.1917,0.1898,0.1907,0.1908,0.1921,0.1932,0.191,0.1909,0.1942,0.1906,0.1891,0.1917,0.1868,0.187,0.1947,0.196,0.197,0.1979,0.184,0,0,0,0,0,0.1934,0.193,0.192,0.1925,0.1927,0.1922,0.1923,0.1926,0.193,0.1937,0.1931,0.193,0.1943,0.1941,0.1938,0.1943,0.1924,0.1954,0.1965,0.1974,0.1977,0.1995,0.2008,0.1869,0.1869,0.1869,0,0,0.1943,0.1935,0.1933,0.1929,0.193,0.1938,0.1926,0.1935,0.1958,0.1929,0.1965,0.1969,0.1957,0.1984,0.1992,0.1959,0.2005,0.1979,0.1987,0.1984,0.2,0.2014,0.2026,0.1872,0.1871,0.1871,0,0,0.1954,0.1955,0.1954,0.1958,0.1964,0.1961,0.1971,0.1968,0.1989,0.2017,0.202,0.2046,0.2041,0.2049,0.205,0.211,0.207,0.2109,0.2159,0.2178,0.2189,0.2199,0.2199,0.2208,0.2104,0.2104,0.2104,0,0.197,0.1968,0.1957,0.1965,0.1977,0.1977,0.1994,0.2009,0.2021,0.2052,0.2044,0.2089,0.2072,0.2123,0.2151,0.2133,0.2137,0.2114,0.2193,0.2202,0.221,0.2208,0.2216,0.211,0.2109,0.2109,0.2108,0,0.1975,0.1987,0.1991,0.2001,0.2015,0.2027,0.2047,0.2077,0.2101,0.212,0.2186,0.2181,0.2209,0.2209,0.2199,0.2257,0.2239,0.2215,0.2162,0.2231,0.2224,0.2231,0.2118,0.2116,0.2114,0.2113,0,0,0.1972,0.199,0.1995,0.2015,0.2037,0.2047,0.2101,0.2149,0.2199,0.2225,0.2294,0.2319,0.2329,0.2332,0.2325,0.2333,0.2392,0.2307,0.2305,0.231,0.2436,0.234,0.2337,0.2395,0.2397,0.2398,0.241,0,0.1984,0.2005,0.2016,0.2057,0.2071,0.2106,0.2157,0.2208,0.2253,0.2319,0.2348,0.24,0.2374,0.2397,0.2414,0.2394,0.2416,0.2391,0.2364,0.2363,0.2272,0.2344,0.2181,0.2171,0.2416,0.2417,0.2418,0,0.198,0.1999,0.2035,0.2093,0.2107,0.2143,0.2233,0.2278,0.2373,0.2412,0.2477,0.25,0.2539,0.2502,0.2515,0.2508,0.2492,0.2468,0.2467,0.2341,0.228,0.214,0.2174,0.2429,0.2428,0.2427,0.2426,0,0.1969,0.2013,0.2047,0.2063,0.2127,0.2178,0.2228,0.2317,0.2368,0.2479,0.2519,0.2582,0.261,0.2605,0.2555,0.2553,0.2551,0.2533,0.2437,0.2429,0.2262,0.2236,0.2562,0.2562,0.2562,0.2562,0.2562,0,0.1964,0.1995,0.2052,0.2072,0.2143,0.2189,0.2278,0.2344,0.2432,0.2492,0.2568,0.2614,0.2642,0.2641,0.2595,0.2523,0.2583,0.2458,0.2433,0.2295,0.2273,0.2466,0.2455,0.2563,0.2563,0.2562,0.2562,0,0.1949,0.1977,0.2025,0.2105,0.2138,0.2195,0.2296,0.2347,0.2435,0.2514,0.2549,0.265,0.2647,0.263,0.2614,0.2558,0.2497,0.2462,0.2288,0.2242,0.236,0.2354,0.2373,0.237,0.2368,0.2365,0.2363,0,0.1949,0.1966,0.2047,0.2079,0.2123,0.2205,0.2256,0.2351,0.2392,0.2514,0.254,0.2602,0.259,0.253,0.246,0.2365,0.2431,0.2178,0.2141,0.2371,0.2345,0.2343,0.2341,0.1969,0.1964,0.196,0.1957,0,0.1954,0.198,0.2013,0.2075,0.2133,0.2184,0.226,0.2281,0.2376,0.2413,0.2469,0.247,0.2454,0.2299,0.2198,0.2127,0.2175,0.2093,0.2389,0.2035,0.1989,0.1963,0.1975,0.1921,0.1925,0.1927,0.1929,0.1931,0.1961,0.1978,0.2014,0.2062,0.2116,0.2139,0.2146,0.2172,0.2191,0.2172,0.2282,0.2191,0.2186,0.1935,0.1847,0.1813,0.1954,0.1871,0.1885,0.1902,0.1847,0.1797,0.1683,0.1685,0.1687,0.1688,0.169,0,0.1945,0.1956,0.1999,0.2029,0.2036,0.21,0.212,0.206,0.1997,0.197,0.1933,0.1716,0.1586,0.1596,0.1491,0.1469,0.1468,0.1415,0.1415,0.1452,0.1484,0.1408,0.1127,0.1125,0.1124,0.1122,0,0,0.1934,0.1936,0.1938,0.1928,0.1955,0.1934,0.192,0.181,0.1747,0.1551,0.146,0.1463,0.1533,0.1293,0.1265,0.1192,0.1311,0.1144,0.1598,0.1636,0.1666,0.1752,0.1675,0,0,0,0,0]},{"header":{"parameterUnit":"m.s-1","parameterCategory":2,"la1":30.2991,"la2":30.254,"lo1":-89.0895,"lo2":-89.0444,"dx":0.0017,"dy":0.0017,"nx":28,"ny":28,"refTime":"2022-12-03T09:00:00:Z","depth":"2","parameterNumber":3,"parameterNumberName":"V-component_of_CURRENTS"},"data":[0,0,0,0,0,0,0,0,0,0,0,0,0,0,0,0,0,0,0,0,0,0,0,0,0,0,0,0,0,0,0,0,0,0,0,0,0,0,0,0,0,0,0,0,0,0,0,0,0,0,0,0,0,0,0,0,0,0,-0.0369,-0.0369,0,-0.0369,-0.0368,-0.0368,-0.0377,-0.0377,-0.0378,-0.0378,-0.0367,-0.0366,-0.0365,0,0,0,0,0,0,0,0,0,0,0,0,0,-0.0288,-0.029,-0.0369,-0.0369,-0.0369,-0.0369,-0.0368,-0.0368,-0.0377,-0.0377,-0.0378,-0.0378,-0.0367,-0.0366,-0.0365,0,0,0,0,0,0,0,0,0,0,0,0,0,-0.0307,-0.0291,-0.0369,-0.0375,-0.0376,-0.0369,-0.0368,-0.0368,-0.0377,-0.0377,-0.0378,-0.0379,-0.0367,-0.0366,-0.0365,-0.0345,0,0,-0.0362,-0.0361,0,0,0,0,0,0,0,0,-0.0306,-0.031,-0.0374,-0.0375,-0.0376,-0.0375,-0.0336,-0.0361,-0.0377,-0.0374,-0.0378,-0.0379,-0.0369,-0.0368,-0.0364,-0.0344,-0.0344,-0.0361,-0.0361,-0.036,-0.036,0,0,0,0,0,0,0,-0.0305,-0.0309,-0.0367,-0.0374,-0.0375,-0.0348,-0.0352,-0.034,-0.0366,-0.0374,-0.0376,-0.0379,-0.037,-0.0365,-0.0363,-0.0344,-0.0362,-0.0361,-0.036,-0.0359,-0.0323,-0.0322,0,0,0,0,0,0,-0.0314,-0.0309,-0.0367,-0.0367,-0.0344,-0.0349,-0.0353,-0.0373,-0.0366,-0.0367,-0.0378,-0.0379,-0.0366,-0.0365,-0.0363,-0.0328,-0.036,-0.0359,-0.0359,-0.0323,-0.0323,-0.0322,0,0,0,0,0,0,-0.0312,-0.032,-0.0367,-0.0338,-0.0343,-0.0351,-0.0372,-0.0373,-0.0373,-0.037,-0.037,-0.0379,-0.0367,-0.0365,-0.0364,-0.0328,-0.0359,-0.0358,-0.0323,-0.0323,-0.0322,-0.0266,0,0,0,0,0,0,-0.031,-0.0319,-0.0331,-0.034,-0.0345,-0.0363,-0.0372,-0.0372,-0.0375,-0.0376,-0.037,-0.037,-0.0367,-0.0365,-0.0363,-0.0328,-0.0357,-0.0324,-0.0323,-0.0322,-0.0268,-0.0263,-0.0259,0,0,0,0,0,-0.0308,-0.0325,-0.0332,-0.0338,-0.0363,-0.0363,-0.0363,-0.0368,-0.0374,-0.0371,-0.0376,-0.037,-0.0359,-0.0365,-0.0361,-0.0325,-0.0324,-0.0323,-0.0323,-0.027,-0.0264,-0.0259,0,0,0,0,0,0,-0.0295,-0.0328,-0.0335,-0.0362,-0.0362,-0.0366,-0.0365,-0.0368,-0.0368,-0.0371,-0.037,-0.0369,-0.0354,-0.0356,-0.0362,-0.0316,-0.0338,-0.0337,-0.0299,-0.0294,-0.029,-0.0264,-0.0356,0,0,0,0,0,-0.0299,-0.032,-0.0336,-0.0354,-0.0357,-0.0359,-0.036,-0.0363,-0.0366,-0.0367,-0.036,-0.0355,-0.0346,-0.0336,-0.0333,-0.0306,-0.0323,-0.0282,-0.0277,-0.0273,-0.0252,-0.026,-0.0254,-0.032,-0.032,-0.032,0,0,-0.0299,-0.0318,-0.0331,-0.0351,-0.0353,-0.0344,-0.0361,-0.0362,-0.0336,-0.0364,-0.033,-0.0344,-0.0341,-0.0314,-0.0306,-0.031,-0.027,-0.0272,-0.0269,-0.0249,-0.0259,-0.0252,-0.0246,-0.0319,-0.0319,-0.0319,0,0,-0.03,-0.0327,-0.0339,-0.0337,-0.0343,-0.0337,-0.0338,-0.0338,-0.032,-0.0302,-0.0312,-0.0307,-0.0292,-0.0274,-0.0265,-0.0235,-0.0254,-0.0237,-0.0179,-0.0187,-0.0181,-0.0176,-0.0213,-0.0211,-0.0225,-0.0224,-0.0224,0,-0.0297,-0.0313,-0.0337,-0.0336,-0.0322,-0.0332,-0.0315,-0.0296,-0.0289,-0.0259,-0.0287,-0.0258,-0.0263,-0.0213,-0.0206,-0.0219,-0.0244,-0.0195,-0.0179,-0.0175,-0.017,-0.0209,-0.0208,-0.0222,-0.0222,-0.0222,-0.0223,0,-0.03,-0.0303,-0.0305,-0.0304,-0.0291,-0.028,-0.0258,-0.0226,-0.0214,-0.0197,-0.0157,-0.0174,-0.0148,-0.0154,-0.0169,-0.0129,-0.0166,-0.0181,-0.0188,-0.016,-0.0203,-0.0204,-0.0218,-0.0219,-0.0219,-0.022,0,0,-0.0305,-0.0308,-0.0304,-0.0279,-0.0269,-0.0249,-0.0194,-0.0139,-0.0078,-0.0086,-0.002,-0.0022,-0.0035,-0.0027,-0.0044,-0.0052,-0.0061,-0.0099,-0.0101,-0.0127,-0.0104,-0.0138,-0.0142,-0.0078,-0.0077,-0.0076,-0.0155,0,-0.0289,-0.0276,-0.0275,-0.0223,-0.0202,-0.0172,-0.0106,-0.0056,-0.0016,0.0045,0.0037,0.0077,0.0018,0.0035,0.0017,-0.0032,-0.0055,-0.0039,-0.0133,-0.0136,-0.0162,-0.014,-0.011,-0.0177,-0.0155,-0.0155,-0.0155,0,-0.0273,-0.0263,-0.0227,-0.0152,-0.0136,-0.0098,0.0022,0.0079,0.0157,0.0188,0.0212,0.02,0.0206,0.0141,0.0073,0.0081,-0.0002,-0.006,-0.0065,-0.0108,-0.0168,-0.0198,-0.0178,-0.0156,-0.0156,-0.0156,-0.0156,0,-0.024,-0.0207,-0.017,-0.0154,-0.0089,-0.0032,0.0028,0.0123,0.0204,0.0283,0.0331,0.0318,0.0331,0.0232,0.0107,0.0095,0.0002,-0.0028,-0.0144,-0.0149,-0.0144,-0.0149,-0.0086,-0.0085,-0.0085,-0.0085,-0.0085,0,-0.0204,-0.0162,-0.0149,-0.0125,-0.0029,0.0009,0.0138,0.0207,0.0307,0.0397,0.0405,0.045,0.0355,0.0288,0.0145,0.0001,0.003,-0.0123,-0.0159,-0.0128,-0.0131,-0.0123,-0.0126,-0.0088,-0.0087,-0.0087,-0.0086,0,-0.0152,-0.0158,-0.0104,-0.0048,-0.0014,0.0063,0.0201,0.0297,0.0386,0.0503,0.053,0.056,0.0482,0.0351,0.0198,0.0072,-0.0078,-0.0147,-0.0119,-0.0148,-0.0239,-0.0239,-0.0264,-0.0265,-0.0267,-0.0268,-0.0269,0,-0.0119,-0.0099,-0.0052,-0.0008,0.0024,0.0135,0.0224,0.0331,0.0421,0.0553,0.0598,0.0592,0.0566,0.0341,0.0141,-0.0088,-0.0116,-0.0212,-0.0218,-0.0219,-0.0251,-0.0249,-0.0247,-0.0207,-0.0207,-0.0207,-0.0208,0,-0.0048,-0.005,-0.0016,0.0056,0.0134,0.0235,0.0352,0.0423,0.0544,0.0637,0.0708,0.07,0.0537,0.0348,0.0076,-0.0082,-0.0166,-0.0226,-0.0214,-0.0165,-0.0171,-0.0201,-0.02,-0.021,-0.021,-0.021,-0.021,-0.021,0.001,0.0036,0.0057,0.0136,0.0225,0.0317,0.0394,0.0503,0.0623,0.0755,0.0737,0.0745,0.0566,0.0231,0.0005,-0.0201,-0.0207,-0.0286,-0.0283,-0.0279,-0.0256,-0.0264,-0.0319,-0.0319,-0.032,-0.032,-0.032,0,0.0079,0.0088,0.0149,0.0219,0.0304,0.0351,0.0473,0.0549,0.0662,0.0768,0.0824,0.0658,0.0456,0.0251,-0.0052,-0.0256,-0.0255,-0.0316,-0.026,-0.0257,-0.0255,-0.0228,-0.0285,-0.0285,-0.0285,-0.0286,0,0,0.0113,0.015,0.0155,0.0266,0.0332,0.0439,0.0497,0.0612,0.0701,0.0805,0.0829,0.0795,0.0527,0.0315,0.0059,-0.0103,-0.0136,-0.0141,-0.0151,-0.0052,-0.0047,-0.0222,-0.0177,0,0,0,0,0]}],[{"header":{"parameterUnit":"m.s-1","parameterCategory":2,"la1":30.2991,"la2":30.254,"lo1":-89.0895,"lo2":-89.0444,"dx":0.0017,"dy":0.0017,"nx":28,"ny":28,"refTime":"2022-12-03T09:00:00:Z","depth":"4","parameterNumber":2,"parameterNumberName":"U-component_of_CURRENTS"},"data":[0,0,0,0,0,0,0,0,0,0,0,0,0,0,0,0,0,0,0,0,0,0,0,0,0,0,0,0,0,0,0,0,0,0,0,0,0,0,0,0,0,0,0,0,0,0,0,0,0,0,0,0,0,0,0,0,0,0,0.0199,0.02,0,0.0365,0.0368,0.0371,0.0438,0.0437,0.0436,0.0434,0.0614,0.062,0.0626,0,0,0,0,0,0,0,0,0,0,0,0,0,0.0104,0.0106,0.0199,0.02,0.0201,0.0365,0.0368,0.0371,0.0439,0.0437,0.0435,0.0434,0.0612,0.0619,0.0626,0,0,0,0,0,0,0,0,0,0,0,0,0,0.0205,0.0106,0.0199,0.0247,0.0252,0.0364,0.0368,0.0372,0.0439,0.0437,0.0435,0.0433,0.061,0.0618,0.0627,0.0722,0,0,0.0655,0.0659,0,0,0,0,0,0,0,0,0.0199,0.0209,0.0239,0.0244,0.025,0.037,0.04,0.0486,0.0439,0.0379,0.0434,0.0432,0.0528,0.0544,0.0594,0.0731,0.0738,0.0655,0.0661,0.0665,0.0667,0,0,0,0,0,0,0,0.0192,0.0203,0.0275,0.024,0.0247,0.0316,0.0328,0.0418,0.0471,0.0384,0.0387,0.039,0.0533,0.0585,0.0598,0.0741,0.0655,0.0663,0.0669,0.0672,0.0933,0.0934,0,0,0,0,0,0,0.0144,0.0196,0.027,0.0279,0.0207,0.0318,0.0332,0.0342,0.047,0.0484,0.0391,0.0392,0.0571,0.0588,0.0605,0.0712,0.0665,0.0673,0.0678,0.0932,0.0933,0.0935,0,0,0,0,0,0,0.0142,0.015,0.0263,0.0233,0.0251,0.0319,0.0332,0.0346,0.0428,0.0473,0.0489,0.0459,0.057,0.0592,0.065,0.0719,0.0677,0.0685,0.093,0.0932,0.0934,0.0933,0,0,0,0,0,0,0.0139,0.0148,0.016,0.023,0.025,0.0321,0.0333,0.035,0.0425,0.0429,0.0537,0.0549,0.057,0.0636,0.0659,0.073,0.0692,0.0928,0.0931,0.0933,0.0931,0.0935,0.0938,0,0,0,0,0,0.0135,0.0145,0.016,0.017,0.0258,0.0321,0.0341,0.0389,0.043,0.0461,0.0502,0.0548,0.0672,0.0643,0.067,0.0746,0.0926,0.093,0.0933,0.093,0.0934,0.0938,0,0,0,0,0,0,0.0117,0.0154,0.0172,0.0195,0.0249,0.0328,0.0379,0.0421,0.0493,0.0493,0.0559,0.0574,0.0656,0.0698,0.0666,0.0827,0.0814,0.0823,0.0802,0.0807,0.0811,0.0821,0.07,0,0,0,0,0,0.0114,0.0132,0.0182,0.0207,0.0247,0.0332,0.0376,0.0391,0.045,0.0485,0.0557,0.0627,0.0696,0.074,0.0798,0.0894,0.0913,0.0962,0.0966,0.0969,0.0994,0.1036,0.1045,0.0946,0.0946,0.0946,0,0,0.0114,0.0138,0.015,0.0205,0.0277,0.0327,0.0359,0.0413,0.0453,0.0493,0.0597,0.0647,0.072,0.0798,0.0845,0.0841,0.1004,0.0973,0.0975,0.1,0.104,0.105,0.1058,0.0949,0.0948,0.0948,0,0,0.013,0.016,0.0191,0.0233,0.0295,0.0336,0.0358,0.0444,0.0491,0.0565,0.0603,0.068,0.0807,0.0858,0.0906,0.0979,0.1016,0.1014,0.1056,0.1095,0.1103,0.1111,0.1126,0.1135,0.1022,0.1022,0.1022,0,0.0144,0.0171,0.0213,0.0258,0.0288,0.0348,0.0387,0.0454,0.0533,0.0587,0.0585,0.0781,0.0842,0.0955,0.097,0.0995,0.1002,0.1029,0.1098,0.1106,0.1114,0.1129,0.1139,0.1023,0.1023,0.1023,0.1022,0,0.0164,0.0209,0.0246,0.0312,0.0345,0.0386,0.0444,0.051,0.0577,0.0638,0.0762,0.0825,0.0938,0.0984,0.1008,0.1115,0.1096,0.1088,0.1081,0.1124,0.1136,0.1147,0.1023,0.1023,0.1023,0.1023,0,0,0.0162,0.0246,0.0264,0.0302,0.0363,0.0394,0.0472,0.0566,0.0648,0.0731,0.0835,0.0969,0.1011,0.1067,0.111,0.1166,0.1225,0.1156,0.1158,0.1161,0.129,0.1178,0.1178,0.1215,0.1218,0.1219,0.1268,0,0.0192,0.0254,0.0281,0.0355,0.0399,0.0457,0.0538,0.061,0.069,0.0801,0.0896,0.1017,0.1039,0.11,0.1148,0.1228,0.1256,0.1212,0.126,0.1262,0.1148,0.1188,0.1227,0.1275,0.1278,0.128,0.1281,0,0.0203,0.024,0.0303,0.0387,0.042,0.0483,0.0595,0.0658,0.0807,0.0869,0.0972,0.1046,0.1182,0.1162,0.1299,0.1265,0.1276,0.1314,0.1316,0.1227,0.117,0.1232,0.13,0.1298,0.1297,0.1295,0.1294,0,0.0158,0.0257,0.0301,0.0326,0.0434,0.051,0.0585,0.0714,0.0788,0.0929,0.099,0.1123,0.1207,0.1267,0.1346,0.1333,0.1449,0.1432,0.133,0.1321,0.1406,0.1398,0.1483,0.1483,0.1482,0.1482,0.1482,0,0.0159,0.0205,0.0313,0.0346,0.043,0.0508,0.0629,0.0716,0.0853,0.0929,0.1033,0.1098,0.1238,0.1313,0.1354,0.1377,0.145,0.1354,0.1336,0.1401,0.1392,0.1412,0.1403,0.1484,0.1484,0.1483,0.1483,0,0.0119,0.0186,0.0243,0.037,0.042,0.0484,0.0651,0.0725,0.0865,0.0951,0.1006,0.1131,0.1233,0.1324,0.1431,0.1387,0.143,0.1394,0.1456,0.1437,0.1272,0.1263,0.1316,0.1312,0.131,0.1307,0.1305,0,0.0112,0.0137,0.0239,0.0275,0.036,0.0476,0.055,0.0712,0.0773,0.0951,0.0969,0.1121,0.1181,0.1253,0.1335,0.1394,0.1364,0.1356,0.1328,0.1282,0.126,0.1255,0.125,0.1301,0.13,0.1299,0.1299,0,0.0078,0.0118,0.016,0.0224,0.0309,0.0382,0.0513,0.0571,0.073,0.0843,0.0946,0.103,0.1104,0.1197,0.1235,0.1268,0.1368,0.1326,0.1332,0.1306,0.1265,0.1244,0.1242,0.1289,0.129,0.1291,0.1292,0,0.0056,0.0057,0.0106,0.0173,0.0234,0.0297,0.0381,0.0492,0.0594,0.0802,0.082,0.0966,0.1083,0.1126,0.1167,0.1197,0.1187,0.1144,0.116,0.1171,0.1102,0.1026,0.0976,0,0,0,0,0,0.0035,0.0027,0.0052,0.0114,0.0164,0.0219,0.0342,0.0429,0.0585,0.0628,0.0749,0.0822,0.0927,0.0998,0.1006,0.1084,0.1171,0.1083,0.1123,0.1234,0.1246,0.1177,0,0,0,0,0,0,0.0014,0.0019,0.0023,0.0052,0.0089,0.0149,0.0233,0.034,0.0397,0.0557,0.0627,0.0737,0.0856,0.0915,0.0978,0.0998,0.0998,0.1174,0.1171,0.1228,0.1238,0.1247,0.1181,0,0,0,0,0]},{"header":{"parameterUnit":"m.s-1","parameterCategory":2,"la1":30.2991,"la2":30.254,"lo1":-89.0895,"lo2":-89.0444,"dx":0.0017,"dy":0.0017,"nx":28,"ny":28,"refTime":"2022-12-03T09:00:00:Z","depth":"4","parameterNumber":3,"parameterNumberName":"V-component_of_CURRENTS"},"data":[0,0,0,0,0,0,0,0,0,0,0,0,0,0,0,0,0,0,0,0,0,0,0,0,0,0,0,0,0,0,0,0,0,0,0,0,0,0,0,0,0,0,0,0,0,0,0,0,0,0,0,0,0,0,0,0,0,0,0.0449,0.0448,0,0.036,0.0359,0.0357,0.0336,0.0337,0.0338,0.0339,0.0246,0.0243,0.024,0,0,0,0,0,0,0,0,0,0,0,0,0,0.0457,0.0457,0.0449,0.0448,0.0448,0.0361,0.0359,0.0357,0.0335,0.0337,0.0338,0.0339,0.0247,0.0243,0.0239,0,0,0,0,0,0,0,0,0,0,0,0,0,0.0415,0.0457,0.0449,0.0431,0.0428,0.0361,0.0359,0.0357,0.0335,0.0337,0.0338,0.034,0.0249,0.0244,0.0239,0.0174,0,0,0.0223,0.022,0,0,0,0,0,0,0,0,0.0417,0.0414,0.0434,0.0432,0.0429,0.0366,0.0328,0.0297,0.0335,0.0365,0.0339,0.0341,0.0288,0.028,0.0252,0.017,0.0166,0.0222,0.0219,0.0217,0.0215,0,0,0,0,0,0,0,0.042,0.0417,0.0408,0.0433,0.043,0.0378,0.0375,0.0321,0.0314,0.0362,0.0362,0.036,0.0286,0.0257,0.025,0.0164,0.0222,0.0218,0.0215,0.0213,0.0066,0.0065,0,0,0,0,0,0,0.0448,0.042,0.0411,0.0406,0.0433,0.0378,0.0373,0.038,0.0315,0.0308,0.0359,0.036,0.0265,0.0256,0.0246,0.0202,0.0217,0.0212,0.0209,0.0067,0.0066,0.0065,0,0,0,0,0,0,0.0449,0.0448,0.0415,0.0415,0.0408,0.0378,0.0384,0.0377,0.0357,0.0313,0.0306,0.0348,0.0266,0.0254,0.0222,0.0197,0.021,0.0205,0.0068,0.0067,0.0066,0.009,0,0,0,0,0,0,0.0449,0.0449,0.046,0.0417,0.0409,0.038,0.0383,0.0375,0.0356,0.0356,0.0301,0.0293,0.0266,0.023,0.0217,0.019,0.0201,0.0069,0.0067,0.0066,0.009,0.009,0.0089,0,0,0,0,0,0.045,0.0459,0.0461,0.046,0.0427,0.038,0.037,0.0349,0.0354,0.0338,0.0319,0.0296,0.0211,0.0225,0.021,0.0181,0.0069,0.0068,0.0066,0.009,0.009,0.0089,0,0,0,0,0,0,0.0467,0.0457,0.0459,0.0466,0.0431,0.0379,0.0384,0.035,0.0317,0.0329,0.0287,0.0277,0.0239,0.0207,0.0223,0.0135,0.0134,0.0129,0.0158,0.0157,0.0156,0.0159,0.0197,0,0,0,0,0,0.0479,0.0487,0.0456,0.0461,0.0465,0.0422,0.0403,0.0374,0.0342,0.0329,0.0282,0.0246,0.0213,0.0188,0.0148,0.0095,0.0069,0.0066,0.0066,0.0066,0.0057,0.001,0.0005,0.0059,0.006,0.006,0,0,0.0489,0.0484,0.049,0.0466,0.0459,0.0428,0.0415,0.0391,0.0347,0.0322,0.0268,0.0242,0.0201,0.0154,0.0131,0.0127,0.0037,0.0063,0.0064,0.0055,0.0008,0.0002,-0.0002,0.0058,0.0059,0.0059,0,0,0.0509,0.052,0.0536,0.0506,0.0484,0.0443,0.0438,0.0378,0.0352,0.0289,0.0273,0.0241,0.0162,0.0134,0.0112,0.0081,0.0043,0.0061,0.0051,0.0006,0.0001,-0.0003,-0.0034,-0.0041,0.0054,0.0054,0.0054,0,0.0533,0.0531,0.0526,0.052,0.0494,0.0454,0.043,0.0387,0.0305,0.0283,0.028,0.0181,0.0152,0.0103,0.0098,0.0079,0.0052,0.006,0.0006,0.0001,-0.0004,-0.0034,-0.0043,0.0055,0.0055,0.0055,0.0055,0,0.0534,0.054,0.0552,0.053,0.0491,0.0466,0.0409,0.0363,0.0323,0.0269,0.0212,0.017,0.0113,0.0095,0.0087,0.0031,0.0025,0.0019,0.0012,-0.0008,-0.0039,-0.0048,0.0057,0.0056,0.0056,0.0056,0,0,0.0566,0.0562,0.0564,0.0555,0.0489,0.0454,0.0402,0.0335,0.0304,0.0227,0.0178,0.0124,0.0103,0.0077,0.0054,0.0011,-0.0037,-0.0001,-0.0004,-0.0023,-0.0132,-0.0106,-0.0114,-0.0052,-0.0054,-0.0056,-0.0135,0,0.0574,0.0574,0.0547,0.0511,0.0501,0.0442,0.0391,0.0318,0.0262,0.0199,0.0156,0.0106,0.0096,0.0075,0.003,-0.0016,-0.0063,-0.0015,-0.0118,-0.0121,-0.009,-0.0125,-0.0061,-0.0142,-0.0144,-0.0145,-0.0147,0,0.056,0.0562,0.0554,0.0508,0.0503,0.0461,0.0376,0.0323,0.0241,0.0202,0.0145,0.0104,0.0042,0.0035,-0.0066,-0.0035,-0.0086,-0.0126,-0.013,-0.0124,-0.0113,-0.0123,-0.0164,-0.0162,-0.0161,-0.016,-0.0159,0,0.0561,0.0548,0.0546,0.0527,0.0476,0.0457,0.0413,0.0329,0.0297,0.0209,0.0175,0.0092,0.0051,-0.0026,-0.0098,-0.0089,-0.0211,-0.0208,-0.0238,-0.0237,-0.0244,-0.0238,-0.0297,-0.0296,-0.0296,-0.0296,-0.0296,0,0.0542,0.054,0.0557,0.0555,0.0529,0.0476,0.044,0.0384,0.0318,0.0278,0.0191,0.0142,0.0031,-0.0048,-0.0112,-0.0198,-0.0223,-0.0252,-0.0263,-0.023,-0.0223,-0.025,-0.0243,-0.0299,-0.0298,-0.0298,-0.0297,0,0.0526,0.0547,0.0553,0.0544,0.0541,0.0516,0.0478,0.0448,0.0381,0.0325,0.0301,0.0176,0.0076,-0.0029,-0.016,-0.0209,-0.0296,-0.0324,-0.0278,-0.0283,-0.0288,-0.028,-0.0369,-0.0369,-0.0369,-0.0369,-0.0369,0,0.0515,0.0525,0.0568,0.058,0.0584,0.056,0.0546,0.0486,0.0452,0.035,0.032,0.0208,0.0123,-0.004,-0.0153,-0.0286,-0.0301,-0.0354,-0.0331,-0.0298,-0.03,-0.0291,-0.0283,-0.0369,-0.0369,-0.0369,-0.0369,0,0.0481,0.0525,0.0548,0.059,0.0599,0.0595,0.0571,0.0554,0.0476,0.0435,0.0336,0.023,0.0108,-0.0027,-0.0138,-0.0231,-0.0322,-0.0354,-0.0355,-0.0333,-0.0299,-0.0299,-0.0291,-0.0369,-0.0369,-0.0369,-0.0369,0,0.0479,0.0487,0.0547,0.057,0.0605,0.0608,0.0595,0.0551,0.0514,0.0409,0.0384,0.0243,0.0155,0.0,-0.0097,-0.019,-0.021,-0.024,-0.0247,-0.0249,-0.0185,-0.0122,-0.016,0,0,0,0,0,0.0447,0.0465,0.0505,0.0541,0.0589,0.0598,0.0597,0.0576,0.0522,0.0468,0.0424,0.0317,0.0145,0.0056,-0.0029,-0.0095,-0.0228,-0.02,-0.0266,-0.0368,-0.0368,-0.0311,0,0,0,0,0,0,0.0433,0.0466,0.0493,0.0522,0.0547,0.057,0.0576,0.0542,0.0502,0.0449,0.0365,0.0302,0.0142,0.0206,-0.0027,-0.0061,-0.0114,-0.0284,-0.0286,-0.0368,-0.0368,-0.0368,-0.031,0,0,0,0,0]}]]